Weather History for Erwin, NC

Change the Weather History Date:

Monday, April 8, 2013

  Actual Average Record
Temperature  
Mean Temperature 66 °F -  
Max Temperature 80 °F 72 °F 91 °F (2001)
Min Temperature 51 °F 43 °F 26 °F (2007)
Growing Degree Days 16 (Base 50)    
Moisture  
Dew Point 51 °F    
Average Humidity 64    
Maximum Humidity 100    
Minimum Humidity 29    
Precipitation  
Precipitation 0.00 in - - ()
Sea Level Pressure  
Sea Level Pressure 30.14 in    
Wind  
Wind Speed 5 mph (SSW)    
Max Wind Speed 15 mph    
Max Gust Speed 21 mph    
Visibility 9 miles    
Events      
Averages and records for this station are not official NWS values.
T = Trace of Precipitation, MM = Missing Value Source: NWS Daily Summary

Daily Weather History Graph

Daily Weather History Graph

Search for Another Location

Airport:

Trip Planner

Search our weather history database for the weather conditions in past years. The results will help you decide how hot, cold, wet, or windy it might be!

Date:

Astronomy

Apr. 08, 2013 Rise Set
Actual Time 6:51 AM EDT 7:42 PM EDT
Civil Twilight 6:25 AM EDT 8:08 PM EDT
Nautical Twilight 5:55 AM EDT 8:38 PM EDT
Astronomical Twilight 5:23 AM EDT 9:10 PM EDT
Moon 5:37 AM EDT (4/8) 6:16 PM EDT (4/8)
Length of Visible Light 13h 42m
Length of Day
12h 50m
Waning Crescent, 3% of the Moon is Illuminated
Apr 8
Waning Crescent
Apr 10
New
Apr 18
First Quarter
Apr 25
Full
May 2
Last Quarter

Hourly Weather History & Observations

Time (EDT) Temp. Dew Point Humidity Pressure Visibility Wind Dir Wind Speed Gust Speed Precip Events Conditions
12:15 AM 58.5 °F 49.1 °F 71% 30.15 in 10.0 mi SSE 4.6 mph - N/A   Clear
12:35 AM 58.1 °F 49.8 °F 74% 30.15 in 10.0 mi SSE 6.9 mph - N/A   Clear
12:55 AM 57.6 °F 50.0 °F 76% 30.15 in 10.0 mi South 5.8 mph - N/A   Clear
1:15 AM 57.2 °F 50.2 °F 77% 30.15 in 10.0 mi South 3.5 mph - N/A   Clear
1:35 AM 56.5 °F 50.4 °F 80% 30.15 in 10.0 mi Calm Calm - N/A   Clear
1:55 AM 56.3 °F 50.2 °F 80% 30.15 in 10.0 mi Calm Calm - N/A   Clear
2:15 AM 55.9 °F 50.5 °F 82% 30.15 in 10.0 mi Calm Calm - N/A   Clear
2:35 AM 55.8 °F 50.4 °F 82% 30.14 in 10.0 mi Calm Calm - N/A   Clear
2:55 AM 55.8 °F 50.7 °F 83% 30.14 in 10.0 mi Calm Calm - N/A   Clear
3:15 AM 55.2 °F 50.5 °F 84% 30.14 in 10.0 mi Calm Calm - N/A   Clear
3:35 AM 54.0 °F 51.6 °F 92% 30.13 in 10.0 mi Calm Calm - N/A   Clear
3:55 AM 52.9 °F 51.6 °F 95% 30.13 in 10.0 mi Calm Calm - N/A   Clear
4:15 AM 52.9 °F 51.8 °F 96% 30.13 in 10.0 mi Calm Calm - N/A   Clear
4:35 AM 53.1 °F 52.0 °F 96% 30.13 in 10.0 mi South 3.5 mph - N/A   Clear
4:55 AM 52.2 °F 51.4 °F 97% 30.13 in 10.0 mi Calm Calm - N/A   Clear
5:15 AM 52.0 °F 51.6 °F 99% 30.14 in 10.0 mi Calm Calm - N/A   Clear
5:35 AM 52.2 °F 51.8 °F 99% 30.14 in 7.0 mi Calm Calm - N/A   Clear
5:55 AM 52.0 °F 51.6 °F 99% 30.14 in 7.0 mi Calm Calm - N/A   Clear
6:15 AM 51.8 °F 51.4 °F 99% 30.15 in 10.0 mi Calm Calm - N/A   Clear
6:35 AM 51.4 °F 51.3 °F 99% 30.15 in 7.0 mi Calm Calm - N/A   Clear
6:55 AM 51.8 °F 51.8 °F 100% 30.16 in 5.0 mi SSE 3.5 mph - N/A   Clear
7:15 AM 51.8 °F 51.8 °F 100% 30.17 in 4.0 mi South 3.5 mph - N/A   Clear
7:35 AM 52.2 °F 52.2 °F 100% 30.18 in 4.0 mi Calm Calm - N/A   Clear
7:55 AM 53.1 °F 53.1 °F 100% 30.19 in 4.0 mi Calm Calm - N/A   Scattered Clouds
8:15 AM 54.0 °F 54.0 °F 100% 30.19 in 5.0 mi South 4.6 mph - N/A   Mostly Cloudy
8:35 AM 54.9 °F 54.7 °F 99% 30.20 in 5.0 mi SSW 3.5 mph - N/A   Overcast
8:55 AM 56.5 °F 55.8 °F 97% 30.20 in 7.0 mi South 3.5 mph - N/A   Overcast
9:15 AM 58.5 °F 56.8 °F 94% 30.20 in 7.0 mi SSW 5.8 mph - N/A   Mostly Cloudy
9:35 AM 60.4 °F 56.3 °F 86% 30.20 in 10.0 mi South 4.6 mph - N/A   Scattered Clouds
9:55 AM 63.0 °F 55.6 °F 77% 30.19 in 10.0 mi South 5.8 mph - N/A   Scattered Clouds
10:15 AM 65.8 °F 55.8 °F 70% 30.19 in 10.0 mi South 4.6 mph - N/A   Scattered Clouds
10:35 AM 67.8 °F 55.2 °F 64% 30.19 in 10.0 mi SSW 6.9 mph - N/A   Clear
10:55 AM 70.5 °F 54.7 °F 57% 30.19 in 10.0 mi SW 8.1 mph - N/A   Scattered Clouds
11:15 AM 71.2 °F 53.2 °F 53% 30.19 in 10.0 mi WSW 5.8 mph - N/A   Mostly Cloudy
11:35 AM 71.1 °F 52.5 °F 52% 30.19 in 10.0 mi SSW 9.2 mph - N/A   Scattered Clouds
11:55 AM 72.5 °F 52.7 °F 50% 30.18 in 10.0 mi SSW 4.6 mph - N/A   Clear
12:15 PM 74.8 °F 48.7 °F 40% 30.18 in 10.0 mi West 8.1 mph - N/A   Scattered Clouds
12:35 PM 74.3 °F 49.5 °F 41% 30.18 in 10.0 mi SW 10.4 mph - N/A   Scattered Clouds
12:55 PM 75.0 °F 50.0 °F 41% 30.16 in 10.0 mi SW 8.1 mph - N/A   Scattered Clouds
1:15 PM 77.4 °F 50.4 °F 39% 30.15 in 10.0 mi SSW 9.2 mph - N/A   Clear
1:35 PM 77.9 °F 49.8 °F 37% 30.14 in 10.0 mi WSW 9.2 mph - N/A   Scattered Clouds
1:55 PM 78.8 °F 50.2 °F 37% 30.13 in 10.0 mi SSW 12.7 mph - N/A   Scattered Clouds
2:15 PM 77.7 °F 49.6 °F 37% 30.12 in 10.0 mi SSW 10.4 mph 17.3 mph N/A   Mostly Cloudy
2:35 PM 78.4 °F 48.6 °F 35% 30.12 in 10.0 mi SW 10.4 mph 19.6 mph N/A   Mostly Cloudy
2:55 PM 78.4 °F 48.2 °F 34% 30.11 in 10.0 mi SSW 13.8 mph 20.7 mph N/A   Mostly Cloudy
3:15 PM 78.6 °F 48.4 °F 34% 30.11 in 10.0 mi SSW 8.1 mph 13.8 mph N/A   Scattered Clouds
3:35 PM 79.2 °F 47.1 °F 32% 30.10 in 10.0 mi SSW 12.7 mph 17.3 mph N/A   Scattered Clouds
3:55 PM 79.9 °F 46.8 °F 31% 30.10 in 10.0 mi SSW 15.0 mph - N/A   Scattered Clouds
4:15 PM 80.1 °F 46.4 °F 31% 30.09 in 10.0 mi SSW 15.0 mph 19.6 mph N/A   Scattered Clouds
4:35 PM 78.4 °F 46.2 °F 32% 30.08 in 10.0 mi South 10.4 mph 18.4 mph N/A   Scattered Clouds
4:55 PM 79.9 °F 44.8 °F 29% 30.08 in 10.0 mi SSW 12.7 mph 17.3 mph N/A   Scattered Clouds
5:15 PM 80.1 °F 45.1 °F 29% 30.08 in 10.0 mi SW 12.7 mph 20.7 mph N/A   Clear
5:35 PM 79.2 °F 44.8 °F 30% 30.07 in 10.0 mi SSW 9.2 mph - N/A   Scattered Clouds
5:55 PM 78.6 °F 46.0 °F 32% 30.08 in 10.0 mi SSW 10.4 mph - N/A   Scattered Clouds
6:15 PM 78.8 °F 46.0 °F 31% 30.08 in 10.0 mi SSW 10.4 mph - N/A   Scattered Clouds
6:35 PM 78.1 °F 45.5 °F 32% 30.08 in 10.0 mi SSW 10.4 mph - N/A   Clear
6:55 PM 77.2 °F 46.6 °F 34% 30.08 in 10.0 mi SSW 8.1 mph - N/A   Clear
7:15 PM 75.2 °F 48.2 °F 38% 30.09 in 10.0 mi SSW 6.9 mph - N/A   Clear
7:35 PM 72.7 °F 50.2 °F 45% 30.09 in 10.0 mi South 5.8 mph - N/A   Clear
7:55 PM 70.9 °F 50.9 °F 49% 30.09 in 10.0 mi South 5.8 mph - N/A   Clear
8:15 PM 69.3 °F 51.6 °F 53% 30.10 in 10.0 mi South 5.8 mph - N/A   Clear
8:35 PM 68.4 °F 51.8 °F 55% 30.10 in 10.0 mi South 5.8 mph - N/A   Clear
8:55 PM 67.8 °F 51.8 °F 56% 30.11 in 10.0 mi South 6.9 mph - N/A   Clear
9:15 PM 68.7 °F 52.0 °F 55% 30.12 in 10.0 mi South 8.1 mph - N/A   Clear
9:35 PM 68.7 °F 52.7 °F 57% 30.13 in 10.0 mi South 8.1 mph - N/A   Clear
9:55 PM 68.0 °F 52.9 °F 58% 30.13 in 10.0 mi South 10.4 mph - N/A   Clear
10:15 PM 67.3 °F 52.7 °F 59% 30.13 in 10.0 mi South 8.1 mph - N/A   Clear
10:35 PM 67.1 °F 52.7 °F 60% 30.14 in 10.0 mi South 11.5 mph - N/A   Clear
10:55 PM 66.2 °F 52.9 °F 62% 30.14 in 10.0 mi South 8.1 mph - N/A   Clear
11:15 PM 64.4 °F 53.1 °F 67% 30.14 in 10.0 mi South 6.9 mph - N/A   Clear
11:35 PM 64.0 °F 53.4 °F 68% 30.14 in 10.0 mi South 6.9 mph - N/A   Clear
11:55 PM 63.7 °F 53.8 °F 70% 30.14 in 10.0 mi South 8.1 mph - N/A   Clear